This demonstration page uses our WeatherBlox Daily Observations layout. Learn more.

Left ArrowRight Arrow

34.16533, -84.80231

Hourly Observations for April 26, 2022

Temp ( °F °C ) Dew Point ( °F °C ) Humidity (%) Winds ( mph kmh ) Pressure ( in mb ) Visibility ( mi km ) Precip ( " mm )
12:15 am 00:15 Partly Cloudy 64 18 61 16 88 88 Calm 30.10 1019 10 16 0.00 0.00
12:35 am 00:35 Mostly Cloudy 64 18 61 16 88 88 Calm 30.10 1019 10 16 0.00 0.00
12:55 am 00:55 Mostly Cloudy 64 18 61 16 88 88 Calm 30.10 1019 10 16 0.00 0.00
1:15 am 01:15 Cloudy 64 18 61 16 88 88 Calm 30.10 1019 10 16 0.00 0.00
1:35 am 01:35 Cloudy 64 18 61 16 88 88 Calm 30.09 1019 10 16 0.00 0.00
1:55 am 01:55 Cloudy 63 17 61 16 94 94 Calm 30.09 1019 10 16 0.00 0.00
2:15 am 02:15 Cloudy 63 17 61 16 94 94 Calm 30.08 1019 10 16 0.00 0.00
2:35 am 02:35 Cloudy 63 17 61 16 94 94 Calm 30.08 1019 10 16 0.00 0.00
2:55 am 02:55 Cloudy 63 17 61 16 94 94 Calm 30.08 1019 10 16 0.00 0.00
3:15 am 03:15 Cloudy 63 17 61 16 94 94 Calm 30.07 1018 10 16 0.00 0.00
3:35 am 03:35 Mostly Cloudy 63 17 61 16 94 94 Calm 30.07 1018 10 16 0.00 0.00
3:55 am 03:55 Mostly Cloudy 61 16 59 15 94 94 Calm 30.08 1019 10 16 0.00 0.00
4:15 am 04:15 Mostly Cloudy 61 16 59 15 94 94 Calm 30.08 1019 10 16 0.00 0.00
4:35 am 04:35 Cloudy 61 16 59 15 94 94 Calm 30.08 1019 10 16 0.00 0.00
4:55 am 04:55 Cloudy 61 16 59 15 94 94 Calm 30.07 1018 10 16 0.00 0.00
5:15 am 05:15 Cloudy 61 16 59 15 94 94 Calm 30.08 1019 10 16 0.00 0.00
5:35 am 05:35 Cloudy 61 16 59 15 94 94 Calm 30.08 1019 9 14 0.00 0.00
5:55 am 05:55 Cloudy with Mist and Fog 61 16 59 15 94 94 Calm 30.09 1019 6 10 0.00 0.00
6:15 am 06:15 Cloudy with Mist and Fog 61 16 59 15 94 94 Calm 30.11 1020 6 10 0.00 0.00
6:35 am 06:35 Cloudy 61 16 59 15 94 94 Calm 30.10 1019 7 11 0.00 0.00
6:55 am 06:55 Partly Cloudy 61 16 59 15 94 94 Calm 30.11 1020 9 14 0.00 0.00
7:15 am 07:15 Mostly Cloudy 63 17 59 15 88 88 W 5 7 30.12 1020 8 13 0.00 0.00
7:35 am 07:35 Cloudy 63 17 61 16 94 94 Calm 30.12 1020 8 13 0.00 0.00
7:55 am 07:55 Cloudy 63 17 61 16 94 94 W 7 11 30.13 1020 9 14 0.00 0.00
8:15 am 08:15 Cloudy with Light Rain 64 18 61 16 88 88 W 8 13 30.14 1021 9 14 0.00 0.00
8:35 am 08:35 Cloudy 64 18 61 16 88 88 WNW 8 13 30.15 1021 10 16 0.00 0.00
8:55 am 08:55 Cloudy 64 18 61 16 88 88 W 10 17 30.17 1022 10 16 0.00 0.00
9:15 am 09:15 Cloudy with Light Rain 63 17 59 15 88 88 VRB 5 7 30.17 1022 5 8 0.00 0.00
9:35 am 09:35 Cloudy with Light Rain 61 16 59 15 94 94 VRB 6 9 30.19 1022 5 8 0.00 0.00
9:55 am 09:55 Cloudy with Light Rain 59 15 59 15 100 100 VRB 5 7 30.20 1023 3 5 0.07 1.78
10:15 am 10:15 Cloudy with Light Rain 59 15 57 14 94 94 Calm 30.22 1023 3 5 0.00 0.00
10:35 am 10:35 Cloudy with Light Rain 59 15 57 14 94 94 N 7 11 30.22 1023 6 10 0.00 0.00
10:55 am 10:55 Mostly Cloudy with Light Rain 59 15 57 14 94 94 Calm 30.21 1023 5 8 0.10 2.54
11:15 am 11:15 Mostly Cloudy with Light Rain 59 15 57 14 94 94 W 8 13 30.24 1024 7 11 0.00 0.00
11:35 am 11:35 Cloudy 59 15 57 14 94 94 VRB 6 9 30.23 1024 10 16 0.00 0.00
11:55 am 11:55 Cloudy 59 15 57 14 94 94 VRB 6 9 30.24 1024 10 16 0.01 0.25
12:15 pm 12:15 Cloudy with Light Rain 59 15 57 14 94 94 VRB 7 11 30.23 1024 10 16 0.00 0.00
12:35 pm 12:35 Cloudy 59 15 55 13 88 88 VRB 6 9 30.24 1024 10 16 0.00 0.00
12:55 pm 12:55 Cloudy 59 15 55 13 88 88 VRB 5 7 30.23 1024 10 16 0.00 0.00
1:15 pm 13:15 Cloudy 59 15 55 13 88 88 VRB 6 9 30.23 1024 10 16 0.00 0.00
1:35 pm 13:35 Cloudy 59 15 55 13 88 88 VRB 6 9 30.22 1023 10 16 0.00 0.00
1:55 pm 13:55 Cloudy 61 16 55 13 83 83 NNW 9 15 30.21 1023 10 16 0.00 0.00
2:15 pm 14:15 Cloudy 59 15 55 13 88 88 W 8 13 30.22 1023 10 16 0.00 0.00
2:35 pm 14:35 Cloudy 59 15 55 13 88 88 VRB 6 9 30.23 1024 10 16 0.00 0.00
2:55 pm 14:55 Cloudy 59 15 54 12 82 82 VRB 6 9 30.22 1023 10 16 0.00 0.00
3:15 pm 15:15 Cloudy 59 15 54 12 82 82 WNW 8 13 30.22 1023 10 16 0.00 0.00
3:35 pm 15:35 Cloudy 59 15 54 12 82 82 VRB 7 11 30.20 1023 10 16 0.00 0.00
3:55 pm 15:55 Cloudy 61 16 54 12 77 77 VRB 5 7 30.19 1022 10 16 0.00 0.00
4:15 pm 16:15 Partly Cloudy 63 17 54 12 73 73 VRB 5 7 30.18 1022 10 16 0.00 0.00
4:35 pm 16:35 Partly Cloudy 64 18 54 12 68 68 VRB 6 9 30.18 1022 10 16 0.00 0.00
4:55 pm 16:55 Partly Cloudy 66 19 52 11 60 60 VRB 7 11 30.16 1021 10 16 0.00 0.00
5:15 pm 17:15 Sunny 66 19 54 12 64 64 VRB 5 7 30.16 1021 10 16 0.00 0.00
5:35 pm 17:35 Sunny 66 19 52 11 60 60 VRB 7 11 30.16 1021 10 16 0.00 0.00
5:55 pm 17:55 Sunny 66 19 52 11 60 60 VRB 5 7 30.16 1021 10 16 0.00 0.00
6:15 pm 18:15 Sunny 66 19 52 11 60 60 VRB 5 7 30.16 1021 10 16 0.00 0.00
6:35 pm 18:35 Sunny 66 19 50 10 56 56 VRB 6 9 30.16 1021 10 16 0.00 0.00
6:55 pm 18:55 Sunny 66 19 48 9 52 52 NW 7 11 30.16 1021 10 16 0.00 0.00
7:15 pm 19:15 Sunny 66 19 48 9 52 52 VRB 5 7 30.16 1021 10 16 0.00 0.00
7:35 pm 19:35 Sunny 66 19 48 9 52 52 WNW 3 6 30.16 1021 10 16 0.00 0.00
7:55 pm 19:55 Sunny 64 18 48 9 56 56 Calm 30.17 1022 10 16 0.00 0.00
8:15 pm 20:15 Sunny 63 17 48 9 59 59 Calm 30.17 1022 10 16 0.00 0.00
8:35 pm 20:35 Clear 61 16 50 10 68 68 Calm 30.18 1022 10 16 0.00 0.00
8:55 pm 20:55 Clear 61 16 50 10 68 68 Calm 30.19 1022 10 16 0.00 0.00
9:15 pm 21:15 Clear 59 15 50 10 72 72 Calm 30.20 1023 10 16 0.00 0.00
9:35 pm 21:35 Clear 57 14 48 9 72 72 Calm 30.21 1023 10 16 0.00 0.00
9:55 pm 21:55 Mostly Clear 59 15 45 7 59 59 VRB 3 6 30.21 1023 10 16 0.00 0.00
10:15 pm 22:15 Mostly Clear 59 15 45 7 59 59 VRB 3 6 30.22 1023 10 16 0.00 0.00
10:35 pm 22:35 Clear 59 15 43 6 55 55 VRB 3 6 30.23 1024 10 16 0.00 0.00
10:55 pm 22:55 Clear 57 14 43 6 59 59 VRB 5 7 30.23 1024 10 16 0.00 0.00
11:15 pm 23:15 Clear 57 14 43 6 59 59 Calm 30.23 1024 10 16 0.00 0.00
11:35 pm 23:35 Clear 55 13 41 5 59 59 VRB 3 6 30.23 1024 10 16 0.00 0.00
11:55 pm 23:55 Clear 55 13 41 5 59 59 WSW 7 11 30.23 1024 10 16 0.00 0.00

Powered by AerisWeather